www.pogodaiklimat.ru

Погода и климат >> Архив погоды >> Россия >> Рязанская область >> Елатьма


АРХИВ ПОГОДЫ в Елатьме

Время (UTC), дата Ветер
(напр.,м/с)
 
Видим.   Явления Облачность Т
(С)
Тd
(С)
f
(%)
Тe
(С)
Тes
(С)
Комфортность P
(гПа)
Po
(гПа)
Тmin
(С)
Tmax
(С)
R
(мм)
R24
(мм)
S
(см)
06 13.06 В 2 10 км 6/0
[Ci fib]
+13.1 -0.4 39 +13 +22 1027.0 1010.5
09 13.06 В 2 10 км ясно +16.7 +0.1 32 +17 +33 опасность
простуды
1026.9 1010.7
12 13.06 С 3 10 км ясно +18.3 0.0 29 +19 +28 1025.9 1009.8
15 13.06 С 2 10 км 3/0
[Ci fib]
+18.5 +0.3 29 +19 +22 1025.2 1009.1 +19.0
18 13.06 СВ 1 10 км 10/0
[Ci fib]
+11.9 +2.6 53 +12 +12 1025.0 1008.5
21 13.06 штиль 0 10 км 8/3 600 м
[Sc Ci fib]
+6.1 +3.9 86 +5 +5 1026.0 1009.1
00 14.06 штиль 0 10 км 4/0
[Ci fib]
+4.2 +3.4 95 +3 +3 1026.0 1009.1
03 14.06 штиль 0 10 км 10/0
[Ci fib]
+8.7 +7.4 92 +8 +10 1024.7 1008.1 +3.8
06 14.06 ЮЗ 2 10 км 10/3 600 м
[Sc Ci fib]
+18.4 +2.7 35 +19 +25 1022.7 1006.6
09 14.06 З 3 10 км 10/5 600 м
[Sc Ac trans Ci fib]
+21.2 +2.9 30 +21 +25 комфорт 1020.0 1004.2
12 14.06 ЮЗ 2 4000 м слаб. ливневой дождь 10/10 300 м
[Cb cap]
+19.2 +6.9 45 +20 +20 1016.6 1000.7
15 14.06 З 3 4000 м слаб. ливневой дождь 10/10 300 м
[Cb cap]
+15.8 +10.0 68 +15 +15 1014.0 997.9 +21.6 0.3
18 14.06 штиль 0 4000 м слаб. ливневой дождь 10/10 300 м
[Cb cap]
+13.9 +12.8 93 +13 +13 1013.8 997.7
21 14.06 СВ 1 4000 м дымка {ливн. осадки} 10/10 300 м
[Cb cap]
+12.9 +11.6 92 +13 +13 1014.4 998.2
00 15.06 СВ 1 4000 м дымка {ливн. осадки} 10/10 300 м
[Cb cap]
+11.9 +10.7 92 +12 +12 1014.9 998.6
03 15.06 СВ 1 4000 м дымка 10/10 300 м
[Cb cap]
+11.4 +9.8 90 +11 +11 1015.5 999.2 +11.2 3
06 15.06 СВ 1 10 км 10/10 600 м
[Sc]
+13.2 +9.8 80 +13 +13 1016.1 999.9
09 15.06 СВ 1 10 км 10/10 600 м
[Sc]
+14.7 +8.9 68 +15 +15 1015.6 999.5
12 15.06 СВ 1 10 км 10/10 600 м
[Sc]
+16.0 +8.4 61 +17 +17 1015.2 999.1
15 15.06 З 1 10 км 5/5 600 м
[Cu med, cong]
+17.8 +6.8 48 +19 +21 1014.2 998.2 +17.8
18 15.06 штиль 0 10 км 10/6 600 м
[Sc diur, vesp Ci fib]
+11.8 +9.1 84 +11 +11 1014.4 998.1
21 15.06 штиль 0 10 км 10/3 600 м
[Sc Ci fib]
+8.3 +7.2 93 +7 +7 1014.3 997.8
00 16.06 З 1 4000 м дымка 10/10 600 м
[Sc]
+9.8 +9.0 95 +9 +9 1013.8 997.4
03 16.06 штиль 0 10 км 10/10 600 м
[Sc]
+12.7 +10.1 84 +12 +12 1013.7 997.5 +7.1
06 16.06 З 1 10 км 10/10 600 м
[Sc]
+16.3 +10.3 68 +17 +17 1013.5 997.5
09 16.06 СЗ 1 10 км 10/10 300 м
[Cb cap]
+18.6 +11.8 65 +20 +20 1013.1 997.2
12 16.06 С 3 10 км {ливн. осадки} 8/8 300 м
[Cb cap]
+19.9 +12.1 61 +22 +24 комфорт 1013.3 997.5
15 16.06 СВ 2 10 км 5/5 600 м
[Sc]
+20.6 +8.6 46 +23 +24 комфорт 1013.1 997.3 +20.9 0.0
18 16.06 штиль 0 10 км 1/1 600 м
[Sc]
+13.6 +10.7 83 +13 +13 1013.9 997.7
21 16.06 З 1 10 км ясно +9.9 +8.9 93 +9 +9 1014.7 998.3
00 17.06 З 1 4000 м дымка ясно +8.2 +7.5 95 +7 +7 1015.3 998.7
03 17.06 З 2 10 км ясно +13.0 +10.4 84 +12 +14 1015.4 999.2 +7.8
06 17.06 З 3 10 км ясно +21.1 +9.7 48 +22 +31 комфорт 1015.1 999.3
09 17.06 СЗ 4 10 км 8/8 300 м
[Cb cap]
+22.8 +7.9 38 +24 +26 комфорт 1014.4 998.7
12 17.06 СЗ 3 10 км 10/8 600 м
[Sc Ci fib]
+23.2 +7.8 37 +24 +26 комфорт 1013.5 997.9
15 17.06 СЗ 2 10 км 8/3 600 м
[Sc Ci fib]
+24.4 +9.4 39 +25 +27 комфорт 1012.3 996.7 +25.0
18 17.06 З 1 10 км 8/8 300 м
[Cb cap]
+19.1 +11.8 63 +21 +21 комфорт 1012.5 996.7
21 17.06 З 1 10 км 8/8 600 м
[Sc]
+14.6 +11.6 82 +15 +15 1013.1 997.0
00 18.06 З 1 10 км 5/5 600 м
[Sc]
+12.2 +10.6 90 +12 +12 1012.8 996.6
03 18.06 З 1 10 км 4/4 600 м
[Sc]
+16.2 +12.6 79 +17 +18 1012.6 996.6 +11.4
06 18.06 З 2 10 км 10/6 600 м
[Sc Ci fib]
+22.7 +13.6 56 +26 +29 жарко 1012.2 996.6
09 18.06 З 3 10 км 10/8 300 м
[Cb cap Ci fib]
+24.1 +13.9 53 +26 +29 жарко 1011.6 996.0
12 18.06 СЗ 3 10 км 10/6 300 м
[Cb cap Ac trans Ci fib]
+25.7 +13.6 47 +28 +30 жарко 1010.7 995.2
15 18.06 СВ 2 10 км в посл. час ливневой дождь 10/3 600 м
[Cu Sc Ci fib]
+22.6 +14.2 59 +26 +28 жарко 1010.6 995.0 +26.6 0.1
18 18.06 ЮВ 1 10 км {ливн. осадки} 10/8 300 м
[Cb cap Ci fib]
+20.3 +13.7 66 +24 +24 комфорт 1011.7 995.9
21 18.06 З 2 10 км {гроза} 10/1 600 м
[Sc Ci fib]
+15.3 +14.2 93 +15 +15 1012.2 996.2
00 19.06 СЗ 1 10 км {гроза, ливн. осадки} 10/0
[Ci fib]
+15.2 +12.5 84 +16 +16 1013.0 996.9
03 19.06 СЗ 2 10 км 1/0
[Ci fib]
+16.3 +12.4 78 +16 +18 1013.9 997.9 +14.4 0.0
06 19.06 СВ 2 10 км 1/0
[Ci fib]
+23.2 +12.5 51 +26 +36 жарко 1013.9 998.3
09 19.06 С 2 10 км 6/6 600 м
[Cu Sc]
+26.5 +10.7 37 +27 +34 жарко 1013.8 998.4
12 19.06 СЗ 3 10 км 6/6 600 м
[Cu Sc]
+28.2 +7.8 28 +28 +32 жарко 1013.6 998.2
15 19.06 С 2 10 км 4/4 600 м
[Sc]
+27.8 +6.6 26 +27 +29 жарко 1013.4 998.0 +28.9
18 19.06 штиль 0 10 км 3/1 600 м
[Sc Ci fib]
+18.2 +11.5 65 +18 +18 1014.7 998.8
21 19.06 З 1 10 км 10/0
[Ci fib]
+13.2 +10.5 84 +13 +13 1015.8 999.6
00 20.06 З 1 10 км 10/0
[Ci fib]
+11.0 +9.6 91 +11 +11 1017.0 1000.6
03 20.06 З 1 10 км 10/0
[Ac trans Cs]
+16.6 +12.0 74 +17 +19 1017.2 1001.1 +10.6

 

Местоположение метеостанции Елатьма (Рязанская область, Россия): широта 54.95 долгота 41.77 высота над уровнем моря 136 м.

В архиве по умолчанию представлена погода в Елатьме за последнюю неделю. Архивные данные за месяц целиком и за предыдущие месяцы, начиная с января 2011 года, Вы можете получить, выбрав интересующий диапазон дат из раскрывающегося списка и нажав кнопку "Ввод!".


*Определитесь, кто Вы:
робот инопланетянин человек

Внимание! Время в таблицах - всемирное. Для получения местного времени необходимо прибавить поправку, которая равна 3 ч.

Смотрите также архив погоды в соседних городах и на ближайших метеорологических станциях:

Погода в Выксе (Нижегородская область, Россия) (48 км)
Погода в Сасово (Рязанская область, Россия) (68 км)
Погода в Муроме (Владимирская область, Россия) (74 км)
Погода в Туме (Рязанская область, Россия) (80 км)
Погода в Шилово (Рязанская область, Россия) (92 км)
Погода в Темникове (Мордовия, Россия) (100 км)
Погода в Гусь-Хрустальный (Владимирская область, Россия) (101 км)
Погода в Черустях (Московская область, Россия) (129 км)
Погода в Арзамасе (Нижегородская область, Россия) (136 км)
Погода в Торбеево (Мордовия, Россия) (136 км)

Пояснения к столбцам:

Ветер - указаны скорость ветра в м/с - средняя за 10 мин, порывы в срок и между сроками (в фигурных скобках) и направление, откуда дует ветер: С - северный, СВ - северо-восточный, В - восточный, ЮВ - юго-восточный, Ю - южный, ЮЗ - юго-западный, З - западный, СЗ - северо-западный.
Видимость - горизонтальная дальность видимости в метрах или километрах. При видимости от 1 до 10 км при отсутствии осадков обычно наблюдается дымка, при ухудшении видимости до 1 км и менее - туман. В сухую погоду видимость может ухудшаться дымом, пылью или мглою.
Явления - указаны атмосферные явления, наблюдавшиеся в срок или в последний час перед сроком; фигурными скобками обозначены явления, наблюдавшиеся между сроками (за 1-3 часа до срока); квадратными скобками обозначены град или гололедные отложения с указанием их диаметра в мм.
Облачность - указаны через наклонную черту общая и нижняя облачность в баллах и высота нижней границы облаков в метрах; квадратными скобками обозначены формы облаков: Ci - перистые, Cs - перисто-слоистые, Cc - перисто-кучевые, Ac - высококучевые, As - высокослоистые, Sc - слоисто-кучевые, Ns - слоисто-дождевые, Cu - кучевые, Cb - кучево-дождевые. Подробнее классификацию облаков см. в Атласе облаков (PDF).
T - Температура воздуха - температура, измеренная на высоте 2 м над землей.
Td - Температура точки росы - температура, при понижении до которой содержащийся в воздухе водяной пар достигнет насыщения.
f - Относительная влажность воздуха - влажноcть воздуха, измеренная на высоте 2 м над землей.
Te - Эффективная температура - температура, которую ощущает одетый по сезону человек в тени. Характеристика душности погоды. При расчете учитывается влияние влажности воздуха и скорости ветра на теплоощущения человека.
Tes - Эффективная температура на солнце - температура, которую ощущает человек, с поправкой на солнечный нагрев. Характеристика знойности погоды. Зависит от высоты солнца над горизонтом, облачности и скорости ветра. Ночью, в пасмурную погоду, а также при ветре 12 м/с и более поправка равна нулю.
P - Атмосферное давление - приведенное к уровню моря атмосферное давление.
Po - Атмосферное давление - измеренное на уровне метеостанции атмосферное давление.
Tmin - Минимальная температура - минимум температуры воздуха на высоте 2 м над землей.
Tmax - Максимальная температура - максимум температуры воздуха на высоте 2 м над землей.
R - Количество осадков - Количество выпавших осадков за период времени, мм. При наведении курсора мыши на число - период времени, за который выпало указанное количество осадков.
R24 - Количество осадков - Количество выпавших осадков за 24 часа, мм.
S - Снежный покров - Высота снежного покрова, см. При наведении курсора мыши на число - состояние снежного покрова и степень покрытия местности в баллах.